• In Deutschland
  • Länderverzeichnis
  • Für 7 Tage
  • Wassertemperatur
  • Satellitenkarten
  • Wetterkarte
  • Widgets
  • user-avatar
    Anmelden

    Stündliche Wetter Chernevo

    Heute, 17 Oktober, Mittwoch

    Zeit Temperatur Niederschläge Wind Luftdruck Luftfeuchtigkeit
    00:00 +9°C° 0 mm 2 m/S 762 mmHg 92%
    01:00 +10°C° 0 mm 1 m/S 762 mmHg 92%
    02:00 +10°C° 0 mm 1 m/S 762 mmHg 93%
    03:00 +10°C° 0 mm 1 m/S 762 mmHg 93%
    04:00 +10°C° 0 mm 1 m/S 762 mmHg 93%
    05:00 +9°C° 0 mm 1 m/S 762 mmHg 93%
    06:00 +9°C° 0 mm 1 m/S 762 mmHg 93%
    07:00 +9°C° 0 mm 2 m/S 762 mmHg 92%
    08:00 +9°C° 0 mm 2 m/S 762 mmHg 91%
    09:00 +10°C° 0 mm 2 m/S 762 mmHg 85%
    10:00 +13°C° 0 mm 2 m/S 762 mmHg 79%
    11:00 +15°C° 0 mm 2 m/S 763 mmHg 72%
    12:00 +15°C° 0 mm 2 m/S 762 mmHg 70%
    13:00 +16°C° 0 mm 2 m/S 762 mmHg 68%
    14:00 +17°C° 0 mm 2 m/S 762 mmHg 66%
    15:00 +15°C° 0 mm 2 m/S 762 mmHg 72%
    16:00 +14°C° 0 mm 2 m/S 762 mmHg 78%
    17:00 +13°C° 0 mm 2 m/S 762 mmHg 84%
    18:00 +12°C° 0 mm 2 m/S 762 mmHg 86%
    19:00 +12°C° 0 mm 2 m/S 762 mmHg 88%
    20:00 +10°C° 0 mm 2 m/S 762 mmHg 90%
    21:00 +10°C° 0 mm 2 m/S 762 mmHg 91%
    22:00 +9°C° 0 mm 2 m/S 761 mmHg 91%
    23:00 +9°C° 0 mm 2 m/S 761 mmHg 92%

    Morgen, 18 Oktober, Donnerstag

    Zeit Temperatur Niederschläge Wind Luftdruck Luftfeuchtigkeit
    00:00 +9°C° 0 mm 2 m/S 761 mmHg 92%
    01:00 +8°C° 0 mm 2 m/S 761 mmHg 93%
    02:00 +8°C° 0 mm 2 m/S 761 mmHg 93%
    03:00 +8°C° 0 mm 2 m/S 761 mmHg 93%
    04:00 +8°C° 0 mm 2 m/S 761 mmHg 94%
    05:00 +7°C° 0 mm 2 m/S 761 mmHg 94%
    06:00 +8°C° 0 mm 2 m/S 760 mmHg 93%
    07:00 +8°C° 0 mm 2 m/S 760 mmHg 92%
    08:00 +8°C° 0 mm 2 m/S 760 mmHg 91%
    09:00 +10°C° 0 mm 3 m/S 760 mmHg 84%
    10:00 +11°C° 0 mm 3 m/S 760 mmHg 78%
    11:00 +13°C° 0 mm 3 m/S 759 mmHg 72%
    12:00 +14°C° 0 mm 3 m/S 759 mmHg 70%
    13:00 +14°C° 0 mm 3 m/S 759 mmHg 68%
    14:00 +16°C° 0 mm 3 m/S 758 mmHg 65%
    15:00 +14°C° 0 mm 3 m/S 758 mmHg 69%
    16:00 +13°C° 0 mm 3 m/S 757 mmHg 73%
    17:00 +13°C° 0 mm 3 m/S 757 mmHg 77%
    18:00 +12°C° 0 mm 3 m/S 757 mmHg 78%
    19:00 +12°C° 0 mm 3 m/S 757 mmHg 78%
    20:00 +12°C° 0 mm 3 m/S 757 mmHg 79%
    21:00 +12°C° 0 mm 3 m/S 757 mmHg 81%
    22:00 +11°C° 0 mm 3 m/S 757 mmHg 83%
    23:00 +11°C° 0 mm 3 m/S 757 mmHg 84%

    übermorgen, 19 Oktober, Freitag

    Zeit Temperatur Niederschläge Wind Luftdruck Luftfeuchtigkeit
    00:00 +11°C° 0 mm 3 m/S 757 mmHg 87%
    01:00 +10°C° 0 mm 3 m/S 758 mmHg 91%
    02:00 +10°C° 0 mm 3 m/S 758 mmHg 94%
    03:00 +9°C° 0 mm 3 m/S 758 mmHg 93%
    04:00 +9°C° 0 mm 3 m/S 758 mmHg 92%
    05:00 +8°C° 0 mm 3 m/S 759 mmHg 92%
    06:00 +8°C° 0 mm 3 m/S 759 mmHg 90%
    07:00 +8°C° 0 mm 3 m/S 760 mmHg 88%
    08:00 +7°C° 0 mm 3 m/S 760 mmHg 86%
    09:00 +8°C° 0 mm 3 m/S 760 mmHg 79%
    10:00 +9°C° 0 mm 3 m/S 760 mmHg 72%
    11:00 +10°C° 0 mm 3 m/S 761 mmHg 65%
    12:00 +10°C° 0 mm 3 m/S 761 mmHg 64%
    13:00 +11°C° 0 mm 4 m/S 761 mmHg 62%
    14:00 +11°C° 0 mm 4 m/S 761 mmHg 61%
    15:00 +10°C° 0 mm 3 m/S 761 mmHg 66%
    16:00 +9°C° 0 mm 3 m/S 761 mmHg 72%
    17:00 +8°C° 0 mm 3 m/S 761 mmHg 77%
    18:00 +7°C° 0 mm 3 m/S 762 mmHg 80%
    19:00 +7°C° 0 mm 3 m/S 762 mmHg 83%
    20:00 +5°C° 0 mm 3 m/S 762 mmHg 86%
    21:00 +5°C° 0 mm 3 m/S 762 mmHg 88%
    22:00 +6°C° 0 mm 2 m/S 762 mmHg 89%
    23:00 +5°C° 0 mm 2 m/S 763 mmHg 91%

    20 Oktober, Samstag

    Zeit Temperatur Niederschläge Wind Luftdruck Luftfeuchtigkeit
    00:00 +5°C° 0 mm 2 m/S 763 mmHg 92%
    01:00 +5°C° 0 mm 2 m/S 763 mmHg 93%
    02:00 +4°C° 0 mm 2 m/S 763 mmHg 94%
    03:00 +4°C° 0 mm 2 m/S 763 mmHg 95%
    04:00 +4°C° 0 mm 2 m/S 763 mmHg 95%
    05:00 +4°C° 0 mm 2 m/S 763 mmHg 95%
    06:00 +4°C° 0 mm 2 m/S 763 mmHg 95%
    07:00 +4°C° 0 mm 2 m/S 763 mmHg 94%
    08:00 +4°C° 0 mm 2 m/S 763 mmHg 93%
    09:00 +6°C° 0 mm 2 m/S 764 mmHg 87%
    10:00 +7°C° 0 mm 2 m/S 764 mmHg 80%
    11:00 +8°C° 0 mm 2 m/S 764 mmHg 74%
    12:00 +8°C° 0 mm 2 m/S 764 mmHg 71%
    13:00 +9°C° 0 mm 2 m/S 764 mmHg 68%
    14:00 +9°C° 0 mm 2 m/S 764 mmHg 66%
    15:00 +9°C° 0 mm 2 m/S 763 mmHg 69%
    16:00 +8°C° 0 mm 2 m/S 763 mmHg 73%
    17:00 +8°C° 0 mm 1 m/S 763 mmHg 76%
    18:00 +8°C° 0 mm 1 m/S 763 mmHg 77%
    19:00 +7°C° 0 mm 1 m/S 763 mmHg 79%
    20:00 +7°C° 0 mm 1 m/S 763 mmHg 80%
    21:00 +7°C° 0 mm 1 m/S 763 mmHg 81%
    22:00 +6°C° 0 mm 1 m/S 763 mmHg 83%
    23:00 +6°C° 0 mm 1 m/S 763 mmHg 84%

    21 Oktober, Sonntag

    Zeit Temperatur Niederschläge Wind Luftdruck Luftfeuchtigkeit
    00:00 +6°C° 0 mm 1 m/S 763 mmHg 85%
    01:00 +5°C° 0 mm 1 m/S 763 mmHg 87%
    02:00 +5°C° 0 mm 1 m/S 764 mmHg 89%
    03:00 +4°C° 0 mm 2 m/S 764 mmHg 89%
    04:00 +4°C° 0 mm 2 m/S 763 mmHg 90%
    05:00 +3°C° 0 mm 2 m/S 763 mmHg 91%
    06:00 +3°C° 0 mm 2 m/S 764 mmHg 91%
    07:00 +4°C° 0 mm 2 m/S 764 mmHg 91%
    08:00 +4°C° 0 mm 2 m/S 764 mmHg 91%
    09:00 +5°C° 0 mm 2 m/S 764 mmHg 85%
    10:00 +7°C° 0 mm 2 m/S 764 mmHg 80%
    11:00 +8°C° 0 mm 2 m/S 764 mmHg 75%
    12:00 +9°C° 0 mm 2 m/S 764 mmHg 72%
    13:00 +9°C° 0 mm 3 m/S 763 mmHg 70%
    14:00 +10°C° 0 mm 3 m/S 763 mmHg 68%
    15:00 +9°C° 0 mm 3 m/S 763 mmHg 73%
    16:00 +8°C° 0 mm 3 m/S 763 mmHg 78%
    17:00 +7°C° 0 mm 3 m/S 762 mmHg 84%
    18:00 +7°C° 0 mm 3 m/S 762 mmHg 84%
    19:00 +5°C° 0 mm 3 m/S 762 mmHg 85%
    20:00 +5°C° 0 mm 4 m/S 762 mmHg 86%
    21:00 +5°C° 0 mm 4 m/S 762 mmHg 87%
    22:00 +5°C° 0 mm 4 m/S 761 mmHg 87%
    23:00 +5°C° 0 mm 4 m/S 761 mmHg 88%

    22 Oktober, Montag

    Zeit Temperatur Niederschläge Wind Luftdruck Luftfeuchtigkeit
    00:00 +5°C° 0 mm 4 m/S 761 mmHg 88%
    01:00 +5°C° 0 mm 5 m/S 760 mmHg 89%
    02:00 +5°C° 0 mm 5 m/S 760 mmHg 89%
    03:00 +5°C° 0 mm 5 m/S 759 mmHg 89%
    04:00 +5°C° 0 mm 5 m/S 759 mmHg 90%
    05:00 +5°C° 0 mm 5 m/S 758 mmHg 90%
    06:00 +5°C° 0 mm 6 m/S 757 mmHg 88%
    07:00 +7°C° 0 mm 6 m/S 757 mmHg 87%
    08:00 +7°C° 0 mm 6 m/S 756 mmHg 86%
    09:00 +8°C° 0 mm 6 m/S 756 mmHg 85%
    10:00 +8°C° 0 mm 6 m/S 756 mmHg 83%
    11:00 +8°C° 0 mm 7 m/S 755 mmHg 82%
    12:00 +9°C° 0.2 mm 7 m/S 755 mmHg 82%
    13:00 +9°C° 0.2 mm 7 m/S 755 mmHg 82%
    14:00 +9°C° 0.2 mm 7 m/S 755 mmHg 82%
    15:00 +8°C° 0.1 mm 6 m/S 755 mmHg 79%
    16:00 +8°C° 0.1 mm 6 m/S 755 mmHg 76%
    17:00 +7°C° 0.1 mm 5 m/S 756 mmHg 72%
    18:00 +6°C° 0 mm 5 m/S 756 mmHg 73%
    19:00 +6°C° 0 mm 4 m/S 757 mmHg 74%
    20:00 +5°C° 0 mm 4 m/S 757 mmHg 75%
    21:00 +5°C° 0 mm 4 m/S 757 mmHg 76%
    22:00 +4°C° 0 mm 4 m/S 758 mmHg 76%
    23:00 +4°C° 0 mm 4 m/S 758 mmHg 77%
    Mehr zeigen